EHI
0 0 0 0 0 0 0 0 0 0 1 1 1 1 2 5 6 5 4 4 6 8 12 15 16 18 17 14 10 7 6 4 3 3 2 1 0 0 0 0 0 1 2 3
0 0 0 0 0 0 0 1 1 0 0 1 1 1 2 3 5 5 4 4 5 9 13 16 17 19 18 15 11 8 6 5 3 3 2 1 0 0 0 0 0 1 2 3
0 0 0 0 0 0 1 2 2 1 0 0 1 1 1 2 3 4 3 3 4 7 12 15 16 18 19 17 13 11 9 7 5 4 3 1 1 1 0 0 0 1 3 4
0 0 0 0 0 0 1 2 3 1 0 0 0 0 0 2 3 3 3 4 5 7 9 11 13 16 18 19 16 13 12 10 8 5 4 3 3 2 1 0 0 1 3 5
0 0 0 0 0 0 1 2 2 1 0 0 0 0 0 1 3 4 4 4 6 8 8 8 9 12 16 20 19 16 13 11 9 7 6 6 5 3 1 0 0 1 3 5
0 0 0 0 0 0 1 1 1 1 0 0 0 0 0 1 3 4 4 4 6 9 8 6 7 11 16 20 20 17 15 12 9 7 6 6 6 4 2 1 2 3 4 4
0 0 0 0 0 0 0 0 0 0 0 0 1 1 0 1 2 4 4 5 7 9 9 7 7 12 18 21 19 18 17 14 10 8 7 6 6 6 5 4 5 5 5 5
0 0 0 0 0 0 0 0 0 0 0 1 2 1 0 0 2 4 5 6 8 10 10 8 8 11 17 20 19 17 16 15 13 12 9 7 6 6 6 5 5 5 5 5
0 0 0 0 0 0 0 0 0 0 0 1 1 1 1 1 3 6 6 7 8 9 10 9 8 10 15 20 20 18 17 16 15 15 11 8 6 6 5 5 5 5 5 4
0 0 0 0 0 0 0 0 0 0 0 0 0 1 1 3 5 8 8 7 8 9 10 9 9 10 14 20 22 20 19 18 18 18 15 12 9 7 5 5 6 6 5 4
0 0 0 0 0 0 0 0 0 0 0 0 0 0 1 3 6 9 10 8 9 10 11 10 10 11 13 18 22 23 23 23 24 24 23 20 15 10 8 8 7 6 5 4
0 0 0 0 0 0 0 0 0 0 0 1 1 1 2 4 7 10 11 11 11 12 13 12 12 13 14 16 22 26 29 30 30 29 29 27 22 16 13 11 9 7 5 4
0 0 0 0 0 0 0 0 0 0 0 1 2 2 2 5 8 11 14 14 14 16 17 16 16 17 18 18 22 27 31 34 34 31 30 29 24 20 18 17 13 8 7 7
0 0 0 0 0 0 0 0 0 0 0 1 1 1 2 4 8 13 16 17 16 19 21 22 21 22 21 21 22 25 29 34 34 31 29 28 25 23 22 21 17 12 11 11
0 0 0 0 0 0 0 0 0 0 0 0 0 1 2 6 11 15 18 19 18 20 23 24 23 23 21 21 22 23 26 31 31 29 28 27 25 24 24 23 20 16 15 14
0 0 0 0 0 0 0 0 0 0 0 0 0 1 4 9 15 18 20 20 19 20 22 23 22 21 19 20 21 23 25 29 29 27 27 26 24 22 21 21 19 18 17 16
0 0 0 0 0 0 0 0 0 1 0 0 1 3 8 14 18 19 21 21 18 17 18 19 21 21 20 20 20 21 23 25 26 25 25 23 21 19 18 17 17 17 16 15
0 0 0 0 0 0 0 0 0 0 0 1 4 8 13 18 19 19 20 20 18 15 14 15 18 19 20 20 18 16 16 17 18 20 19 18 16 15 14 14 14 15 15 14
0 0 0 0 0 0 0 0 0 0 1 4 8 12 16 18 19 19 19 19 17 14 13 14 14 15 16 17 15 13 12 11 12 13 13 13 13 12 11 11 11 12 13 13
0 0 0 0 0 0 0 0 0 1 2 5 9 13 15 17 18 19 20 18 15 13 13 14 13 12 11 11 12 11 10 9 9 10 10 11 11 11 10 9 9 12 13 13
0 0 0 0 0 0 0 0 1 1 3 6 9 12 13 14 16 18 18 16 13 12 12 12 11 9 8 7 8 8 7 6 6 7 8 8 8 9 9 8 8 11 13 13
0 0 0 0 0 0 1 2 1 2 4 6 10 12 13 14 14 15 13 11 9 10 11 10 9 8 7 6 6 6 5 3 3 4 6 6 6 7 8 8 8 10 12 13
0 0 0 1 1 2 3 4 4 4 5 7 9 11 13 14 14 12 9 7 6 6 8 8 7 7 7 6 6 6 5 3 3 4 5 6 6 7 8 9 10 10 11 12
0 0 1 2 3 4 5 7 8 8 7 7 8 9 10 12 13 11 7 5 4 4 4 5 5 6 6 6 6 6 5 4 3 3 3 4 6 8 9 10 11 11 10 10
0 1 2 3 3 3 5 7 8 9 8 7 7 8 8 10 12 11 8 5 4 4 4 4 4 4 4 5 5 4 4 3 2 1 1 3 5 7 8 9 8 8 7 6
0 1 2 3 2 1 2 5 7 9 8 7 7 7 8 9 11 11 8 6 6 5 5 5 4 3 4 4 4 4 3 3 1 0 1 2 4 6 7 6 5 4 3 3
Wind_Speed
3 2 4 8 7 8 5 2 3 4 2 3 4 5 6 5 7 6 5 6 7 7 6 7 8 8 7 5 5 4 4 2 2 1 1 1 0 0 0 0 1 1 1 1
3 5 10 7 5 3 3 2 2 3 1 2 3 3 3 4 7 8 7 7 7 6 6 6 7 7 6 6 5 4 4 3 2 1 1 1 1 1 1 0 1 0 1 1
6 8 5 3 3 2 2 4 5 4 1 4 4 2 1 2 2 3 4 6 7 10 9 8 7 7 6 6 6 5 4 3 2 2 1 1 2 2 2 1 1 1 0 1
5 7 4 4 5 3 4 4 5 5 3 0 2 1 4 3 3 4 4 4 6 7 8 7 8 7 7 7 6 5 4 3 3 3 3 3 2 1 1 0 0 1 1 1
5 4 3 5 6 4 5 3 3 3 3 3 1 3 5 1 3 6 6 5 6 7 9 8 8 9 8 7 7 5 4 3 3 3 3 3 2 1 0 1 1 2 1 1
7 5 4 5 3 2 2 3 4 5 5 2 3 4 5 5 8 6 6 8 8 7 7 7 7 7 6 6 6 5 5 3 3 4 3 3 3 2 1 1 1 1 1 1
7 7 5 3 2 3 2 5 4 5 4 3 2 2 6 7 6 7 8 8 8 7 6 7 7 7 7 7 6 6 6 4 4 4 4 3 3 3 3 2 1 1 0 0
2 7 4 3 5 4 2 7 7 4 3 3 2 2 6 4 3 4 5 6 7 6 6 7 8 8 8 8 7 6 6 5 5 5 4 3 3 2 2 2 2 2 1 1
4 6 5 3 3 5 2 2 7 7 2 1 2 3 5 2 2 3 4 5 6 6 7 7 7 8 7 7 7 7 7 6 6 6 5 4 3 3 2 2 2 1 1 1
6 3 5 3 3 3 5 5 5 5 4 1 3 3 3 3 2 2 4 5 5 6 6 6 7 6 6 7 6 5 6 7 6 6 5 5 4 3 3 3 2 2 1 1
5 4 5 3 1 3 1 3 4 3 5 6 3 6 6 8 6 6 6 6 6 5 6 6 5 5 5 5 5 5 5 4 5 5 4 4 4 3 3 3 2 2 1 1
4 6 2 5 5 3 4 4 6 5 2 3 4 6 4 6 6 6 5 4 4 5 5 5 5 4 3 4 5 5 5 4 4 4 4 4 4 3 3 3 2 2 2 2
5 6 2 6 7 5 3 1 3 5 4 3 3 6 2 3 4 4 5 4 4 5 5 4 4 3 3 3 4 4 4 4 4 4 4 4 3 3 4 3 3 3 2 2
6 6 6 7 6 2 0 1 2 5 3 3 5 4 1 3 4 4 5 5 5 6 5 5 4 3 2 3 3 3 3 4 4 4 4 4 4 4 4 3 3 2 2 2
6 4 2 3 3 2 2 1 2 3 5 5 5 4 4 5 6 5 5 5 6 6 5 5 4 3 3 2 2 2 2 2 3 4 3 3 3 3 3 2 2 2 2 2
4 4 1 2 2 3 3 2 2 2 2 4 4 1 2 4 6 5 5 5 5 5 5 4 4 3 2 2 2 2 2 1 3 3 3 2 2 2 2 3 2 2 1 1
2 5 3 1 2 4 3 1 2 1 2 5 5 5 4 6 6 5 6 6 5 5 4 4 4 3 2 2 2 2 2 1 2 2 2 1 2 2 2 2 1 2 2 2
5 4 4 2 3 1 6 3 4 3 1 3 5 5 7 8 5 4 6 8 7 6 5 4 3 3 2 2 2 2 2 2 2 1 1 1 1 1 1 2 2 2 2 2
6 7 4 4 3 2 4 2 3 4 0 2 6 7 7 7 7 3 2 5 6 6 5 4 3 3 2 2 2 3 3 2 2 1 0 1 1 1 1 1 1 1 2 1
4 6 6 4 4 4 6 4 2 7 1 1 5 7 8 6 4 3 3 4 5 5 4 4 3 4 3 2 3 4 2 2 1 1 0 0 1 2 2 2 2 2 2 2
2 3 3 4 3 4 5 3 3 4 6 4 5 7 7 5 5 5 5 4 5 5 4 4 4 3 2 2 3 3 2 1 1 1 1 0 1 1 2 2 1 1 1 1
4 3 3 4 3 6 4 3 5 6 4 5 6 6 6 6 6 6 5 5 4 4 4 4 4 2 2 2 3 2 1 1 1 1 1 1 1 1 1 1 1 1 1 1
2 6 5 6 6 5 2 4 4 6 6 5 5 6 8 8 7 6 5 5 4 4 3 3 4 3 2 1 2 2 1 1 1 2 1 1 1 1 0 1 1 1 1 1
3 1 4 3 1 1 3 5 5 6 7 6 7 8 8 8 8 6 5 4 3 3 3 3 3 2 1 1 1 1 0 1 2 1 1 1 1 1 1 0 1 1 1 1
3 1 4 3 0 3 4 4 6 7 9 9 8 8 8 8 7 6 5 4 3 3 2 2 3 2 0 1 1 0 0 1 1 1 1 1 0 0 0 0 1 1 2 3
2 2 4 4 5 4 2 2 7 9 7 7 7 6 6 7 7 5 4 3 3 3 2 3 2 1 1 1 1 2 1 0 1 0 1 1 1 0 0 0 1 2 2 3
Wind_Direction
302 67 248 238 215 210 200 205 265 270 221 149 158 147 163 166 154 151 160 161 163 171 171 160 155 150 141 140 136 137 133 136 120 113 116 110 124 19 17 151 134 136 136 136
351 265 248 246 237 211 189 184 243 285 278 119 141 145 166 178 184 172 168 172 172 167 162 163 158 152 150 154 155 155 158 161 157 152 153 154 160 179 174 5 43 121 138 158
222 250 268 275 252 251 242 181 206 208 47 57 87 23 303 258 207 181 176 181 175 170 170 170 166 162 159 161 165 165 170 162 166 161 118 91 62 39 34 14 358 355 148 157
250 253 273 285 257 225 262 218 187 172 122 59 106 190 265 230 231 211 199 185 184 175 167 171 169 168 169 172 168 164 166 162 162 148 134 132 129 142 217 241 335 3 46 88
261 266 266 265 250 228 219 200 162 147 119 76 42 119 281 232 225 225 207 192 190 176 169 175 181 178 175 170 169 168 162 164 161 151 147 138 132 148 142 57 41 27 18 25
259 270 245 241 265 243 165 62 35 46 73 77 236 153 259 226 208 208 204 193 183 175 170 174 180 172 171 168 168 166 161 173 171 163 153 145 149 148 118 87 78 45 14 358
299 292 268 246 274 308 92 90 40 3 16 258 242 147 240 238 209 193 192 184 176 176 175 175 172 171 171 170 174 171 168 180 184 176 176 170 169 167 164 167 156 144 118 353
243 289 268 225 194 197 204 137 153 183 211 276 336 223 257 255 212 183 172 167 164 177 178 177 177 175 178 178 178 178 179 188 189 184 189 185 171 170 169 169 160 163 174 207
193 258 289 262 205 158 164 160 162 136 142 70 300 300 313 359 73 127 145 155 175 181 178 174 174 172 178 179 183 185 186 192 193 191 188 184 176 173 176 171 160 163 176 170
171 245 293 297 28 20 146 146 87 104 135 199 294 259 230 241 215 171 164 173 184 186 179 169 170 176 183 181 181 182 187 194 192 190 187 181 184 179 172 168 168 170 180 165
154 166 299 344 191 206 110 89 102 110 144 151 203 265 215 194 191 184 182 176 174 163 155 157 173 180 180 171 170 178 186 184 189 191 187 180 180 176 167 172 184 175 167 168
159 134 239 270 265 203 148 161 144 145 208 155 158 259 250 178 174 176 166 157 156 140 137 146 161 159 156 171 175 181 185 187 189 186 178 178 175 170 175 185 190 179 178 185
133 111 72 339 340 1 54 75 123 127 120 139 163 257 302 133 139 155 128 119 124 125 119 108 98 111 140 159 169 176 180 185 181 170 166 174 178 179 186 192 192 188 189 194
112 107 151 188 221 231 43 37 82 107 134 172 208 218 330 126 134 119 109 118 123 119 114 108 96 82 110 130 146 162 176 178 172 168 170 179 189 193 192 189 186 188 186 185
92 118 178 210 220 134 122 117 97 121 164 168 202 189 201 170 151 143 138 127 113 106 105 111 110 97 97 99 106 123 142 160 164 160 170 191 192 184 175 167 170 174 177 177
80 120 86 351 14 68 57 81 115 124 155 152 141 218 227 139 119 117 126 121 118 116 116 111 106 100 97 95 93 91 90 104 125 137 163 177 165 158 166 173 176 174 173 162
99 115 100 289 329 58 2 302 147 154 164 153 174 203 155 124 128 144 144 137 138 137 133 130 126 120 121 115 112 111 110 99 103 125 141 146 152 157 176 175 162 171 175 161
136 111 117 129 60 138 248 250 144 128 115 142 143 151 152 142 134 136 149 142 145 148 143 146 137 127 120 98 87 92 85 87 87 92 128 136 137 159 171 162 177 191 181 172
146 131 117 118 131 256 293 286 155 131 2 172 150 143 134 123 89 65 155 140 139 142 143 147 136 123 97 81 87 85 67 59 64 51 171 184 166 158 160 169 182 182 167 189
72 102 116 125 139 210 241 266 165 102 58 244 147 144 143 125 127 207 181 125 113 112 111 114 103 92 85 74 79 77 62 55 34 334 295 246 178 174 185 188 187 184 180 200
43 53 118 144 167 242 244 229 114 127 210 198 148 142 142 149 173 163 135 119 118 114 105 102 101 102 112 106 96 88 69 35 309 330 11 341 228 203 189 179 175 164 172 179
161 149 177 145 153 235 249 124 154 191 170 142 131 131 126 122 112 111 112 111 108 102 97 101 100 81 65 91 97 82 37 311 3 35 29 343 320 248 162 149 164 158 169 173
183 182 177 176 203 231 196 140 155 146 123 120 115 121 117 115 113 110 108 108 104 105 106 101 104 89 59 71 101 97 321 342 45 34 8 344 349 349 91 154 173 175 190 204
302 83 100 76 14 57 91 93 91 101 108 106 107 109 110 115 116 114 115 110 103 97 101 100 99 89 46 27 65 105 3 45 69 38 343 332 9 348 352 315 181 182 214 229
282 27 84 91 169 51 36 88 108 98 94 92 93 104 117 120 122 123 120 121 113 98 85 90 103 108 10 13 40 36 20 72 64 8 327 314 282 247 317 302 247 217 226 216
294 159 145 185 205 152 172 144 109 100 99 104 103 102 112 122 126 123 125 126 118 109 94 85 75 70 33 17 353 339 333 3 116 0 322 305 275 277 296 71 347 345 281 280